Regional Weather Roundup
Issued by NWS

Home | Current Version | Previous Version | Graphics & Text | Print | Product List | Glossary Off
Versions: 1 2 3 4 5 6 7 8 9 10 11 12 13 14 15 16 17 18 19 20 21 22 23 24 25 26 27 28 29 30 31 32 33 34 35 36 37 38 39 40 41 42 43 44 45 46 47 48 49 50

000
ASUS43 KTOP 280708
RWRKS

WEATHER ROUNDUP FOR KANSAS
NATIONAL WEATHER SERVICE GOODLAND KS
200 AM CDT THU APR 28 2016

NOTE:  "FAIR" INDICATES FEW OR NO CLOUDS BELOW 12,000 FEET WITH NO
SIGNIFICANT WEATHER AND/OR OBSTRUCTIONS TO VISIBILITY.

KSZ001>006-013>018-027>032-041>047-280800-
NORTHWEST KANSAS

CITY           SKY/WX    TMP DP  RH WIND       PRES   REMARKS
GOODLAND       MOCLDY    35  31  85 NW6       29.91R
HAYS           CLEAR     45  30  57 NW15      29.85S
HILL CITY      CLEAR     41  34  76 NW13      29.88R
RUSSELL        CLEAR     43  36  76 NW16      29.82F
$$

KSZ061>065-074>080-084>089-280800-
SOUTHWEST KANSAS

CITY           SKY/WX    TMP DP  RH WIND       PRES   REMARKS
DODGE CITY     CLOUDY    46  39  76 W3        29.89R
ELKHART          N/A     50  35  56 E8          N/A
GARDEN CITY    CLOUDY    45  38  76 N5        29.88R
GREAT BEND     CLEAR     45  34  65 NW12      29.84S
LIBERAL        CLOUDY    52  36  54 E8        29.88R
PRATT          CLEAR     44  36  74 W7        29.87R
$$

KSZ066>073-081>083-090>101-280800-
SOUTHEAST KANSAS

CITY           SKY/WX    TMP DP  RH WIND       PRES   REMARKS
CHANUTE        CLEAR     51  43  74 W8        29.80S
COFFEYVILLE    CLEAR     55  43  63 NW8       29.82S
HUTCHINSON     CLEAR     46  38  73 N10       29.80F
MEDICINE LODGE   N/A     47  42  83 N5        29.84S
NEWTON         CLEAR     45  36  70 NW6       29.83F
PARSONS        CLEAR     51  43  74 W3        29.83R
WICHITA INTL   CLEAR     52  39  61 N16G25    29.79F
WICHITA JABRA  CLEAR     48  39  71 N13       29.79F
WICHITA MCCONL CLEAR     51  39  62 N13       29.79F
WINFIELD       CLEAR     47  41  80 W7        29.84R
$$

KSZ007>012-019>026-033>040-048>060-102>105-280800-
NORTHEAST KANSAS

CITY           SKY/WX    TMP DP  RH WIND       PRES   REMARKS
CONCORDIA      CLEAR     40  34  79 W14       29.79R WCI  32
EMPORIA        CLEAR     47  39  74 W9        29.79R
LAWRENCE       PTCLDY    48  39  71 W18G31    29.75R
MANHATTAN      CLEAR     46  35  65 W14G21    29.77S
MARYSVILLE     CLOUDY    45  39  81 W14G21    29.73R
OLATHE IND     CLEAR     49  39  68 W12G23    29.75R
OLATHE EXE     CLEAR     49  39  68 W10G22    29.74R
SALINA         CLEAR     47  37  68 W17       29.81S
TOPEKA BILLARD MOCLDY    48  37  65 W16G24    29.75R
TOPEKA FORBES  PTCLDY    48  38  68 W17       29.75R
$$




USA.gov is the U.S. government's official web portal to all federal, state and local government web resources and services.